User: anonymous   Login
Location: Unspecified
(0.0000°N, 0.0000°E)
Time: 15:30:15
(UTC+00:00)
Language:

Jikiken - Orbit

View from above orbital plane
View from above orbital plane
View from above satellite
View from above satellite

Ground track
Ground track

The orbit data is extracted from the following two-line orbital elements,

1 11027U 78087A   17229.10227845  .00588628 -21066-6  36115-3 0  9999
2 11027  31.0787 133.6953 2700687 142.3147 240.1271 10.27518743447012
Epoch (UTC): 17 August 2017 02:27:16
Eccentricity: 0.2700687
inclination: 31.0787°
perigee height: 145 km
apogee height: 4973 km
right ascension of ascending node: 133.6953°
argument of perigee: 142.3147°
revolutions per day: 10.27518743
mean anomaly at epoch: 240.1271°
orbit number at epoch: 44701

The dashed part of the orbit path shows where the satellite is in the earth's shadow,  

DLR